Regional Weather Roundup
Issued by NWS

Home | Current Version | Previous Version | Text Only | Print | Product List | Glossary Off
Versions: 1 2 3 4 5 6 7 8 9 10 11 12 13 14 15 16 17 18 19 20 21 22 23 24 25 26 27 28 29 30 31 32 33 34 35 36 37 38 39 40 41 42 43 44 45 46 47 48 49 50

000
ASUS43 KOAX 252302
RWRNE

WEATHER ROUNDUP FOR NEBRASKA
NATIONAL WEATHER SERVICE OMAHA NE
600 PM CDT SAT MAR 25 2017

NOTES: SATELLITE DATA IS BEING USED TO AUGMENT CLOUD COVER ABOVE
       12000 FEET.
       "FAIR" INDICATES FEW OR NO CLOUDS BELOW 12,000 FEET WITH NO
       SIGNIFICANT WEATHER AND/OR OBSTRUCTIONS TO VISIBILITY.

  * THESE STATIONS DO NOT REPORT WEATHER SUCH AS RAIN...SNOW OR FOG.

NEZ001>004-019>022-054>056-260000-
NEBRASKA PANHANDLE

CITY           SKY/WX    TMP DP  RH WIND       PRES   REMARKS
SCOTTSBLUFF    CLOUDY    67  27  22 SE7       29.82S
ALLIANCE       CLOUDY    64  29  26 S6        29.83F
CHADRON        CLOUDY    68  30  24 CALM      29.79F
KIMBALL        CLOUDY    61  32  33 S12       29.88S
SIDNEY         CLOUDY    61  30  31 S7        29.87F
$$

NEZ057>060-069>072-079>082-260000-
SOUTHWEST NEBRASKA

CITY           SKY/WX    TMP DP  RH WIND       PRES   REMARKS
NORTH PLATTE   SUNNY     64  22  20 E5        29.86F
IMPERIAL       CLOUDY    59  26  28 SE5       29.88F
LEXINGTON      MOSUNNY   50  42  75 E10       29.91S
MCCOOK         SUNNY     63  33  32 E9        29.86F
OGALLALA       CLOUDY    62  21  20 CALM      29.88S
$$

NEZ005>010-023>029-035>040-094-260000-
NORTH CENTRAL NEBRASKA

CITY           SKY/WX    TMP DP  RH WIND       PRES   REMARKS
VALENTINE      SUNNY     62  17  17 SE7       29.88S
AINSWORTH      SUNNY     57  37  48 E10       29.90S
BROKEN BOW     MOSUNNY   51  43  74 E12       29.90F
O`NEILL        CLOUDY    40  38  93 E9        29.96S WCI  34
ORD            CLOUDY    43  38  82 E9        29.92F
THEDFORD       SUNNY     63  24  22 SE6       29.88F
$$

NEZ041-046>049-061>064-073>077-083>087-260000-
SOUTH CENTRAL NEBRASKA

CITY           SKY/WX    TMP DP  RH WIND       PRES   REMARKS
GRAND ISLAND   CLOUDY    40  40 100 N10       29.94F WCI  33
AURORA         CLOUDY    39  39  98 N10       29.94S FOG     WCI  32
HASTINGS       CLOUDY    41  38  89 N9        29.94S
HEBRON         CLOUDY    41  38  91 N9        29.93S FOG
HOLDREGE       CLOUDY    44  40  88 NE10      29.91F
KEARNEY *      CLOUDY    43  37  81 NE7       29.93F
YORK           CLOUDY    39  39 100 N12       29.94S FOG     WCI  32
$$

NEZ011>018-030>034-042>045-260000-
NORTHEAST NEBRASKA

CITY           SKY/WX    TMP DP  RH WIND       PRES   REMARKS
NORFOLK        CLOUDY    39  37  92 N10       29.95F FOG     WCI  32
ALBION         CLOUDY    41  38  89 NE8       29.95S FOG
BLAIR          CLOUDY    41  39  93 N9        29.92R
FREMONT        CLOUDY    40  40  98 N7        29.94S
TEKAMAH        LGT RAIN  42  39  89 N12       29.94F
WAYNE          CLOUDY    40  39  98 NE9       29.96S WCI  34
$$

NEZ050>053-065>068-078-088>093-260000-
SOUTHEAST NEBRASKA

CITY           SKY/WX    TMP DP  RH WIND       PRES   REMARKS
LINCOLN        CLOUDY    42  39  89 N12       29.94S
OMAHA EPPLEY   CLOUDY    43  37  79 N14       29.93R
BEATRICE       CLOUDY    42  40  94 N13       29.92S
FALLS CITY     CLOUDY    43  41  93 N10       29.89S
NEBRASKA CITY  CLOUDY    42  42  99 NE10      29.90R FOG
PLATTSMOUTH    CLOUDY    42  38  84 N8        29.91S
$$

NEZ044-045-051>053-067-260000-
OMAHA AREA

CITY           SKY/WX    TMP DP  RH WIND       PRES   REMARKS
OMAHA EPPLEY   CLOUDY    43  37  79 N14       29.93R
BLAIR          CLOUDY    41  39  93 N9        29.92R
FREMONT        CLOUDY    40  40  98 N7        29.94S
MILLARD        CLOUDY    44  41  89 N6        29.93S
OFFUTT AFB     CLOUDY    43  39  86 N9        29.92R
PLATTSMOUTH    CLOUDY    42  38  84 N8        29.91S
WAHOO          CLOUDY    40  39  93 N12       29.93F FOG     WCI  34
$$




USA.gov is the U.S. government's official web portal to all federal, state and local government web resources and services.